When you browse on this site, cookies collect data to enhance your experience and personalize the content and advertising you see.
Visit our Privacy Policy to learn more. By continuing to use the site, you agree to this use of cookies and data.
  • In Latvia
  • List of Countries
  • For 7 days
  • Water Temperature
  • Weather Map
  • Weather Widgets
  • user-avatar
    Login

    Hourly Weather Lubango

    Today, 7 June, Sunday

    Time Temperature Precipitation Wind Pressure Humidity
    00:00 +14°C° 0 mm 1 mps 609 mmHg 37%
    01:00 +13°C° 0 mm 1 mps 609 mmHg 38%
    02:00 +13°C° 0 mm 2 mps 608 mmHg 38%
    03:00 +13°C° 0 mm 2 mps 608 mmHg 38%
    04:00 +12°C° 0 mm 2 mps 608 mmHg 39%
    05:00 +12°C° 0 mm 2 mps 608 mmHg 40%
    06:00 +12°C° 0 mm 2 mps 608 mmHg 41%
    07:00 +12°C° 0 mm 2 mps 608 mmHg 42%
    08:00 +14°C° 0 mm 3 mps 609 mmHg 37%
    09:00 +18°C° 0 mm 3 mps 610 mmHg 33%
    10:00 +21°C° 0 mm 3 mps 612 mmHg 28%
    11:00 +22°C° 0 mm 3 mps 611 mmHg 26%
    12:00 +24°C° 0 mm 2 mps 611 mmHg 24%
    13:00 +26°C° 0 mm 2 mps 611 mmHg 21%
    14:00 +26°C° 0 mm 2 mps 611 mmHg 21%
    15:00 +25°C° 0 mm 1 mps 611 mmHg 21%
    16:00 +25°C° 0 mm 1 mps 610 mmHg 21%
    17:00 +22°C° 0 mm 1 mps 609 mmHg 27%
    18:00 +19°C° 0 mm 1 mps 609 mmHg 32%
    19:00 +15°C° 0 mm 1 mps 608 mmHg 38%
    20:00 +15°C° 0 mm 1 mps 608 mmHg 38%
    21:00 +15°C° 0 mm 1 mps 608 mmHg 38%
    22:00 +14°C° 0 mm 1 mps 608 mmHg 38%
    23:00 +14°C° 0 mm 1 mps 608 mmHg 38%

    Tomorrow, 8 June, Monday

    Time Temperature Precipitation Wind Pressure Humidity
    00:00 +14°C° 0 mm 1 mps 608 mmHg 38%
    01:00 +14°C° 0 mm 1 mps 608 mmHg 38%
    02:00 +13°C° 0 mm 1 mps 608 mmHg 38%
    03:00 +13°C° 0 mm 1 mps 608 mmHg 38%
    04:00 +13°C° 0 mm 1 mps 607 mmHg 38%
    05:00 +13°C° 0 mm 1 mps 608 mmHg 38%
    06:00 +13°C° 0 mm 1 mps 608 mmHg 38%
    07:00 +13°C° 0 mm 1 mps 608 mmHg 38%
    08:00 +16°C° 0 mm 1 mps 609 mmHg 33%
    09:00 +19°C° 0 mm 2 mps 610 mmHg 29%
    10:00 +24°C° 0 mm 2 mps 612 mmHg 24%
    11:00 +24°C° 0 mm 2 mps 611 mmHg 22%
    12:00 +25°C° 0 mm 2 mps 611 mmHg 21%
    13:00 +26°C° 0 mm 2 mps 611 mmHg 19%
    14:00 +26°C° 0 mm 2 mps 611 mmHg 20%
    15:00 +25°C° 0 mm 3 mps 610 mmHg 21%
    16:00 +25°C° 0 mm 3 mps 610 mmHg 21%
    17:00 +21°C° 0 mm 3 mps 609 mmHg 29%
    18:00 +18°C° 0 mm 2 mps 608 mmHg 37%
    19:00 +14°C° 0 mm 2 mps 607 mmHg 45%
    20:00 +14°C° 0 mm 2 mps 607 mmHg 45%
    21:00 +14°C° 0 mm 2 mps 608 mmHg 44%
    22:00 +13°C° 0 mm 1 mps 608 mmHg 44%
    23:00 +13°C° 0 mm 1 mps 608 mmHg 43%

    Day after tomorrow, 9 June, Tuesday

    Time Temperature Precipitation Wind Pressure Humidity
    00:00 +13°C° 0 mm 1 mps 608 mmHg 43%
    01:00 +13°C° 0 mm 1 mps 608 mmHg 42%
    02:00 +13°C° 0 mm 1 mps 608 mmHg 42%
    03:00 +12°C° 0 mm 1 mps 607 mmHg 42%
    04:00 +12°C° 0 mm 1 mps 607 mmHg 43%
    05:00 +12°C° 0 mm 1 mps 607 mmHg 43%
    06:00 +12°C° 0 mm 1 mps 608 mmHg 43%
    07:00 +12°C° 0 mm 1 mps 608 mmHg 43%
    08:00 +16°C° 0 mm 1 mps 609 mmHg 37%
    09:00 +20°C° 0 mm 1 mps 611 mmHg 31%
    10:00 +23°C° 0 mm 1 mps 612 mmHg 26%
    11:00 +24°C° 0 mm 1 mps 612 mmHg 24%
    12:00 +25°C° 0 mm 2 mps 612 mmHg 23%
    13:00 +26°C° 0 mm 2 mps 611 mmHg 22%
    14:00 +25°C° 0 mm 2 mps 611 mmHg 23%
    15:00 +24°C° 0 mm 2 mps 610 mmHg 25%
    16:00 +22°C° 0 mm 3 mps 610 mmHg 26%
    17:00 +20°C° 0 mm 3 mps 609 mmHg 33%
    18:00 +17°C° 0 mm 2 mps 608 mmHg 39%
    19:00 +14°C° 0 mm 2 mps 608 mmHg 45%
    20:00 +13°C° 0 mm 2 mps 608 mmHg 46%
    21:00 +13°C° 0 mm 2 mps 608 mmHg 47%
    22:00 +13°C° 0 mm 1 mps 608 mmHg 48%
    23:00 +13°C° 0 mm 1 mps 608 mmHg 47%

    10 June, Wednesday

    Time Temperature Precipitation Wind Pressure Humidity
    00:00 +12°C° 0 mm 1 mps 608 mmHg 47%
    01:00 +12°C° 0 mm 1 mps 608 mmHg 46%
    02:00 +12°C° 0 mm 1 mps 608 mmHg 45%
    03:00 +12°C° 0 mm 1 mps 608 mmHg 44%
    04:00 +12°C° 0 mm 1 mps 608 mmHg 43%
    05:00 +12°C° 0 mm 1 mps 608 mmHg 43%
    06:00 +12°C° 0 mm 1 mps 608 mmHg 43%
    07:00 +13°C° 0 mm 1 mps 608 mmHg 43%
    08:00 +16°C° 0 mm 1 mps 610 mmHg 38%
    09:00 +20°C° 0 mm 1 mps 611 mmHg 32%
    10:00 +23°C° 0 mm 1 mps 612 mmHg 26%
    11:00 +24°C° 0 mm 1 mps 612 mmHg 24%
    12:00 +25°C° 0 mm 2 mps 612 mmHg 23%
    13:00 +26°C° 0 mm 2 mps 612 mmHg 21%
    14:00 +25°C° 0 mm 2 mps 611 mmHg 22%
    15:00 +25°C° 0 mm 2 mps 610 mmHg 22%
    16:00 +24°C° 0 mm 2 mps 610 mmHg 23%
    17:00 +20°C° 0 mm 2 mps 609 mmHg 26%
    18:00 +17°C° 0 mm 2 mps 608 mmHg 30%
    19:00 +14°C° 0 mm 2 mps 607 mmHg 33%
    20:00 +14°C° 0 mm 1 mps 607 mmHg 34%
    21:00 +14°C° 0 mm 1 mps 608 mmHg 34%
    22:00 +14°C° 0 mm 1 mps 608 mmHg 35%
    23:00 +13°C° 0 mm 1 mps 608 mmHg 35%

    11 June, Thursday

    Time Temperature Precipitation Wind Pressure Humidity
    00:00 +13°C° 0 mm 1 mps 608 mmHg 35%
    01:00 +13°C° 0 mm 1 mps 608 mmHg 36%
    02:00 +13°C° 0 mm 1 mps 607 mmHg 36%
    03:00 +13°C° 0 mm 1 mps 607 mmHg 35%
    04:00 +13°C° 0 mm 1 mps 607 mmHg 35%
    05:00 +13°C° 0 mm 1 mps 607 mmHg 36%
    06:00 +13°C° 0 mm 1 mps 608 mmHg 36%
    07:00 +13°C° 0 mm 1 mps 608 mmHg 37%
    08:00 +16°C° 0 mm 1 mps 609 mmHg 32%
    09:00 +21°C° 0 mm 1 mps 611 mmHg 27%
    10:00 +24°C° 0 mm 1 mps 612 mmHg 23%
    11:00 +24°C° 0 mm 2 mps 612 mmHg 21%
    12:00 +25°C° 0 mm 2 mps 612 mmHg 20%
    13:00 +26°C° 0 mm 3 mps 611 mmHg 19%
    14:00 +25°C° 0 mm 3 mps 611 mmHg 20%
    15:00 +24°C° 0 mm 3 mps 610 mmHg 20%
    16:00 +24°C° 0 mm 3 mps 610 mmHg 21%
    17:00 +20°C° 0 mm 3 mps 609 mmHg 25%
    18:00 +17°C° 0 mm 2 mps 608 mmHg 30%
    19:00 +14°C° 0 mm 2 mps 607 mmHg 34%
    20:00 +13°C° 0 mm 2 mps 608 mmHg 34%
    21:00 +13°C° 0 mm 2 mps 608 mmHg 34%
    22:00 +13°C° 0 mm 1 mps 608 mmHg 34%
    23:00 +13°C° 0 mm 1 mps 608 mmHg 34%

    12 June, Friday

    Time Temperature Precipitation Wind Pressure Humidity
    00:00 +13°C° 0 mm 1 mps 608 mmHg 35%
    01:00 +13°C° 0 mm 1 mps 608 mmHg 35%
    02:00 +12°C° 0 mm 1 mps 608 mmHg 37%
    03:00 +12°C° 0 mm 1 mps 607 mmHg 39%
    04:00 +12°C° 0 mm 1 mps 607 mmHg 41%
    05:00 +12°C° 0 mm 1 mps 607 mmHg 41%
    06:00 +12°C° 0 mm 1 mps 608 mmHg 42%
    07:00 +12°C° 0 mm 1 mps 608 mmHg 43%
    08:00 +16°C° 0 mm 1 mps 609 mmHg 37%
    09:00 +20°C° 0 mm 1 mps 610 mmHg 31%
    10:00 +23°C° 0 mm 1 mps 612 mmHg 25%
    11:00 +24°C° 0 mm 1 mps 611 mmHg 24%
    12:00 +25°C° 0 mm 2 mps 611 mmHg 22%
    13:00 +26°C° 0 mm 2 mps 611 mmHg 21%
    14:00 +26°C° 0 mm 2 mps 610 mmHg 21%
    15:00 +25°C° 0 mm 2 mps 610 mmHg 21%
    16:00 +25°C° 0 mm 2 mps 610 mmHg 22%
    17:00 +21°C° 0 mm 2 mps 609 mmHg 26%
    18:00 +18°C° 0 mm 2 mps 608 mmHg 31%
    19:00 +15°C° 0 mm 2 mps 607 mmHg 36%
    20:00 +14°C° 0 mm 2 mps 607 mmHg 34%
    21:00 +14°C° 0 mm 1 mps 608 mmHg 33%
    22:00 +14°C° 0 mm 1 mps 608 mmHg 32%
    23:00 +14°C° 0 mm 1 mps 608 mmHg 32%
    Show more